Home   Weather   37°52'N, 84°34'W   Past weeks
Flag for USA

Past Weather in 37°52'N, 84°34'W, USA — Yesterday and Last 2 Weeks

Now
55 °F

Light rain. Fog.


Feels Like: 52 °F
Forecast: 60 / 45 °F
Wind: 12 mph from North

Location: Blue Grass Airport

Current Time: Apr 19, 2019 at 10:39:32 am

Latest Report: Apr 19, 2019 at 9:54 am


Visibility: 6 mi

Pressure: 29.49 "Hg

Humidity: 87%

Dew Point: 51 °F

Location of 37°52'N, 84°34'WLocation

Past Weather in 37°52'N, 84°34'W — Graph

°F

37°52'N, 84°34'W Temperature Yesterday

Maximum temperature yesterday: 79 °F (at 4:54 pm)
Minimum temperature yesterday: 61 °F (at 5:54 am)
Average temperature yesterday: 71 °F

High & Low Weather Summary for the Past Weeks

 TemperatureHumidityPressure
High83 °F (Apr 11, 3:54 pm)97% (Apr 9, 9:14 am)30.29 "Hg (Apr 9, 9:14 am)
Low38 °F (Apr 15, 7:54 am)25% (Apr 4, 2:54 pm)29.31 "Hg (Apr 14, 3:54 pm)
Average61 °F63%29.92 "Hg
* Reported Apr 4 8:54 am — Apr 19 8:54 am, 37°52'N, 84°34'W. Weather by CustomWeather, © 2019

Note: Actual official high and low records may vary slightly from our data, if they occured in-between our weather recording intervals... More about our weather records

Advertising

37°52'N, 84°34'W Weather History for the Previous 24 Hours

Scroll right to see more
 ConditionsComfort  
Time TempWeatherWind HumidityBarometerVisibility
8:54 am
Fri, Apr 19
56 °FLight rain. Fog.10 mph90%29.50 "Hg3 mi
7:54 am59 °FMostly cloudy.5 mph87%29.50 "Hg9 mi
7:26 am59 °FLight rain. Fog.5 mph87%29.52 "Hg4 mi
7:02 am58 °FLight rain. Fog.3 mph90%29.52 "Hg2 mi
5:54 am59 °FLight rain. Mostly cloudy.5 mph87%29.48 "Hg7 mi
5:13 am60 °FLight rain. Fog.9 mph86%29.51 "Hg4 mi
5:01 am61 °FRain. Fog.6 mph87%29.50 "Hg2 mi
4:21 am61 °FOvercast.7 mph87%29.48 "Hg10 mi
3:54 am61 °FMostly cloudy.7 mph87%29.46 "Hg10 mi
2:54 am61 °FLight rain. Mostly cloudy.7 mph87%29.49 "Hg10 mi
2:32 am61 °FLight rain. Fog.3 mph87%29.56 "Hg5 mi
1:54 am61 °FRain. Fog.No wind87%29.56 "Hg4 mi
12:54 am63 °FLight rain. Overcast.13 mph81%29.57 "Hg9 mi
11:54 pm
Thu, Apr 18
70 °FPassing clouds.9 mph47%29.56 "Hg10 mi
10:54 pm70 °FPassing clouds.9 mph47%29.59 "Hg10 mi
9:54 pm73 °FClear.14 mph41%29.61 "Hg10 mi
8:54 pm74 °FClear.14 mph40%29.62 "Hg10 mi
7:54 pm75 °FScattered clouds.15 mph40%29.62 "Hg10 mi
6:54 pm76 °FPassing clouds.10 mph43%29.62 "Hg10 mi
5:54 pm79 °FPassing clouds.12 mph41%29.63 "Hg10 mi
4:54 pm79 °FSunny.20 mph41%29.65 "Hg10 mi
3:54 pm77 °FSunny.15 mph45%29.67 "Hg10 mi
2:54 pm75 °FPassing clouds.17 mph47%29.72 "Hg10 mi
1:54 pm77 °FPassing clouds.21 mph47%29.75 "Hg10 mi
12:54 pm75 °FScattered clouds.25 mph50%29.77 "Hg10 mi
11:54 am74 °FSunny.24 mph53%29.79 "Hg10 mi
10:54 am70 °FPartly sunny.20 mph57%29.82 "Hg10 mi
Weather by CustomWeather, © 2019

See weather overview